User: anonymous   Login
Location: Unspecified
(0.0000°N, 0.0000°E)
Time: 00:59:16
(UTC+00:00)
Language:

SICRAL 2 - Orbit

View from above orbital plane
View from above orbital plane
View from above satellite
View from above satellite

Ground track
Ground track

The orbit data is extracted from the following two-line orbital elements,

1 40614U 15022B   22263.61879497 0.00000000  00000-0  00000-0 0    04
2 40614   0.0270 259.2463 0003615 260.6918  99.3082  1.00270000    05
Epoch (UTC): 20 September 2022 14:51:03
Eccentricity: 0.0003615
inclination: 0.0270°
perigee height: 35771 km
apogee height: 35802 km
right ascension of ascending node: 259.2463°
argument of perigee: 260.6918°
revolutions per day: 1.00270000
mean anomaly at epoch: 99.3082°
orbit number at epoch: 0

The dashed part of the orbit path shows where the satellite is in the earth's shadow,  

DLR